Weather History for Nashua, NH

Change the Weather History Date:

Saturday, February 23, 2013

  Actual Average Record
Temperature  
Mean Temperature 32 °F -  
Max Temperature 36 °F 40 °F 63 °F (1984)
Min Temperature 29 °F 21 °F -18 °F (1972)
Degree Days  
Heating Degree Days 32    
Moisture  
Dew Point 28 °F    
Average Humidity 81    
Maximum Humidity 96    
Minimum Humidity 68    
Precipitation  
Precipitation 0.02 in - - ()
Sea Level Pressure  
Sea Level Pressure 30.58 in    
Wind  
Wind Speed 2 mph (ESE)    
Max Wind Speed 9 mph    
Max Gust Speed -    
Visibility 8 miles    
Events      
Averages and records for this station are not official NWS values.
T = Trace of Precipitation, MM = Missing Value Source: NWS Daily Summary

Daily Weather History Graph

Daily Weather History Graph

Search for Another Location

Airport:

Trip Planner

Search our weather history database for the weather conditions in past years. The results will help you decide how hot, cold, wet, or windy it might be!

Date:

Astronomy

Feb. 23, 2013 Rise Set
Actual Time 6:31 AM EST 5:28 PM EST
Civil Twilight 6:02 AM EST 5:56 PM EST
Nautical Twilight 5:29 AM EST 6:29 PM EST
Astronomical Twilight 4:56 AM EST 7:02 PM EST
Moon 3:34 PM EST (2/23) 4:53 AM EST (2/23)
Length of Visible Light 11h 54m
Length of Day
10h 57m
Waxing Gibbous, 95% of the Moon is Illuminated
Feb 23
Waxing Gibbous
Feb 25
Full
Mar 4
Last Quarter
Mar 11
New
Mar 19
First Quarter

Hourly Weather History & Observations

Time (EST) Temp. Windchill Dew Point Humidity Pressure Visibility Wind Dir Wind Speed Gust Speed Precip Events Conditions
12:51 AM 29.1 °F - 23.0 °F 78% 31.09 in 10.0 mi Calm Calm - N/A   Mostly Cloudy
1:51 AM 29.1 °F - 24.1 °F 81% 31.08 in 10.0 mi Calm Calm - N/A   Overcast
2:51 AM 30.0 °F - 24.1 °F 79% 31.07 in 10.0 mi Calm Calm - N/A   Overcast
3:41 AM 30.2 °F - 24.8 °F 80% 30.28 in 10.0 mi Calm Calm - N/A   Overcast
3:51 AM 30.0 °F - 24.1 °F 79% 31.05 in 10.0 mi Calm Calm - N/A   Overcast
4:51 AM 31.1 °F - 25.2 °F 79% 31.04 in 10.0 mi Calm Calm - N/A   Overcast
4:59 AM 30.2 °F - 24.8 °F 80% 30.26 in 10.0 mi Calm Calm - N/A   Mostly Cloudy
5:51 AM 31.1 °F - 24.1 °F 75% 31.02 in 10.0 mi Calm Calm - N/A   Overcast
7:27 AM 30.2 °F - 24.8 °F 80% 30.24 in 10.0 mi Calm Calm - N/A   Mostly Cloudy
7:34 AM 30.2 °F - 24.8 °F 80% 30.24 in 10.0 mi Calm Calm - N/A   Scattered Clouds
7:51 AM 32.0 °F - 25.2 °F 76% 31.02 in 10.0 mi Calm Calm - N/A   Mostly Cloudy
8:09 AM 32.0 °F - 24.8 °F 75% 30.25 in 10.0 mi Calm Calm - N/A   Overcast
8:51 AM 32.0 °F 28.7 °F 25.2 °F 76% 31.00 in 10.0 mi ESE 3.5 mph - N/A   Overcast
9:02 AM 33.8 °F 30.8 °F 24.8 °F 70% 30.24 in 10.0 mi SE 3.5 mph - N/A   Overcast
9:51 AM 34.0 °F 28.8 °F 26.1 °F 73% 30.98 in 10.0 mi SE 5.8 mph - N/A   Overcast
10:51 AM 34.9 °F 29.0 °F 26.1 °F 70% 30.96 in 10.0 mi SE 6.9 mph - N/A   Overcast
11:51 AM 36.0 °F 32.1 °F 27.1 °F 70% 30.93 in 10.0 mi Variable 4.6 mph - N/A   Overcast
1:51 PM 36.9 °F 30.1 °F 27.1 °F 68% 30.89 in 10.0 mi SE 9.2 mph - N/A   Overcast
2:51 PM 36.9 °F 30.7 °F 28.0 °F 70% 30.88 in 10.0 mi SE 8.1 mph - N/A   Overcast
3:51 PM 36.9 °F 30.7 °F 29.1 °F 74% 30.85 in 10.0 mi SE 8.1 mph - N/A   Overcast
4:51 PM 36.0 °F 30.3 °F 29.1 °F 76% 30.85 in 10.0 mi SSE 6.9 mph - N/A   Overcast
5:51 PM 36.0 °F 29.6 °F 30.0 °F 79% 30.83 in 8.0 mi ESE 8.1 mph - N/A   Overcast
6:51 PM 34.0 °F 28.8 °F 31.1 °F 89% 30.81 in 6.0 mi ESE 5.8 mph - N/A   Mostly Cloudy
7:24 PM 33.8 °F - 30.2 °F 87% 30.05 in 6.0 mi Calm Calm - N/A   Mostly Cloudy
7:51 PM 32.9 °F 29.8 °F 31.1 °F 93% 30.80 in 6.0 mi ESE 3.5 mph - N/A   Overcast
8:01 PM 33.8 °F - 30.2 °F 87% 30.04 in 5.0 mi Calm Calm - N/A   Overcast
8:10 PM 33.8 °F 30.8 °F 30.2 °F 87% 30.03 in 3.0 mi ESE 3.5 mph - N/A   Overcast
8:51 PM 32.9 °F - 31.1 °F 93% 30.78 in 4.0 mi Calm Calm - 0.01 in   Mostly Cloudy
9:29 PM 33.8 °F - 30.2 °F 87% 30.00 in 6.0 mi Calm Calm - N/A   Mostly Cloudy
9:51 PM 32.9 °F - 31.1 °F 93% 30.76 in 5.0 mi Calm Calm - N/A   Mostly Cloudy
10:24 PM 33.8 °F - 32.0 °F 93% 29.98 in 5.0 mi Calm Calm - N/A   Overcast
10:42 PM 33.8 °F - 30.2 °F 87% 29.98 in 2.0 mi Calm Calm - N/A   Mostly Cloudy
10:51 PM 32.9 °F - 32.0 °F 96% 30.74 in 2.0 mi Calm Calm - N/A   Mostly Cloudy
11:08 PM 33.8 °F - 30.2 °F 87% 29.96 in 2.0 mi Calm Calm - 0.01 in   Mostly Cloudy
11:36 PM 33.8 °F 30.8 °F 30.2 °F 87% 29.95 in 2.5 mi NNE 3.5 mph - 0.01 in   Mostly Cloudy
11:51 PM 32.9 °F - 31.1 °F 93% 30.70 in 2.5 mi Calm Calm - 0.01 in   Mostly Cloudy
11:55 PM 33.8 °F - 30.2 °F 87% 29.94 in 3.0 mi Calm Calm - N/A   Mostly Cloudy